Tracking 34717 objects as of 14-Jul-2026
HD Live streaming from Space Station
objects crossing your sky now

CZ-4 DEB

Track CZ-4 DEB now!
10-day predictions


NORAD ID: 20891
Int'l Code: 1990-081BB
Perigee: 863.8 km
Apogee: 1,177.6 km
Inclination: 99.0 °
Period: 105.4 minutes
Semi major axis: 7391 km
RCS: 0.0314 m2 (small)
Launch date: September 3, 1990
Source: People's Republic of China (PRC)
Launch site: Taiyaun Space Center, China (TSC)

Note: This is SATELLITE DEBRIS
Your satellite tracking list
Your tracking list is empty




NASA's NSSDC Master Catalog

Two Line Element Set (TLE):
1 20891U 90081BB  26195.01871212  .00000099  00000-0  14430-3 0  9996
2 20891  98.9839 222.5331 0212267 189.7203 200.5047 13.66102312779721
Source of the keplerian elements: AFSPC